Powrót do katalogu

STARLINK-36720

AktywnyŁącznośćSSO
NORAD 67655·PAYLOAD·🇺🇸 United States

Wystrzelony Feb 2, 2026 z Vandenberg Space Force Base

Loading…

Następne Przeloty (najbliższe 24 godziny)

TLE

ŚwieżeSource: CelesTrak SupGP

Epoka: Sep 14, 2026, 21:46 UTC

1 67655C 26022H   26257.90743056  .00023201  00000+0  72039-3 0  2575
2 67655  97.2840 289.5720 0001009 102.5030 177.6071 15.33420407    14

Śledź STARLINK-36720 w czasie rzeczywistym z AllMySat

Download on the App Store